When you browse on this site, cookies collect data to enhance your experience and personalize the content and advertising you see.
Visit our Privacy Policy to learn more. By continuing to use the site, you agree to this use of cookies and data.
  • In France
  • List of Countries
  • For 7 days
  • Water Temperature
  • Satellite Maps
  • Weather Map
  • Weather Widgets
  • user-avatar
    Login

    Hourly Weather Yopal

    Today, 17 November, Saturday

    Time Temperature Precipitation Wind Pressure Humidity
    00:00 +26°C° 0.3 mm 1 mps 729 mmHg 93%
    01:00 +26°C° 0 mm 1 mps 728 mmHg 92%
    02:00 +26°C° 0.1 mm 1 mps 728 mmHg 92%
    03:00 +23°C° 0.1 mm 0 mps 728 mmHg 92%
    04:00 +23°C° 0.1 mm 0 mps 728 mmHg 92%
    05:00 +24°C° 0.1 mm 0 mps 729 mmHg 90%
    06:00 +26°C° 0.1 mm 1 mps 729 mmHg 88%
    07:00 +27°C° 0.1 mm 1 mps 730 mmHg 87%
    08:00 +28°C° 0.1 mm 1 mps 730 mmHg 80%
    09:00 +29°C° 0.1 mm 2 mps 731 mmHg 73%
    10:00 +30°C° 0.1 mm 2 mps 731 mmHg 67%
    11:00 +31°C° 0.1 mm 2 mps 730 mmHg 65%
    12:00 +33°C° 0.1 mm 3 mps 729 mmHg 62%
    13:00 +34°C° 0.1 mm 3 mps 729 mmHg 60%
    14:00 +33°C° 0.4 mm 3 mps 728 mmHg 66%
    15:00 +31°C° 0.4 mm 2 mps 728 mmHg 71%
    16:00 +31°C° 0.4 mm 2 mps 727 mmHg 77%
    17:00 +29°C° 0.7 mm 2 mps 727 mmHg 82%
    18:00 +28°C° 0.7 mm 1 mps 728 mmHg 86%
    19:00 +27°C° 0.7 mm 1 mps 728 mmHg 91%
    20:00 +27°C° 1 mm 1 mps 729 mmHg 92%
    21:00 +27°C° 1 mm 1 mps 729 mmHg 93%
    22:00 +26°C° 1 mm 1 mps 730 mmHg 94%
    23:00 +26°C° 0.4 mm 1 mps 729 mmHg 94%

    Tomorrow, 18 November, Sunday

    Time Temperature Precipitation Wind Pressure Humidity
    00:00 +26°C° 0.4 mm 1 mps 729 mmHg 94%
    01:00 +26°C° 0.4 mm 1 mps 729 mmHg 93%
    02:00 +25°C° 0 mm 1 mps 729 mmHg 93%
    03:00 +25°C° 0 mm 1 mps 728 mmHg 92%
    04:00 +25°C° 0 mm 1 mps 728 mmHg 91%
    05:00 +26°C° 0.1 mm 1 mps 729 mmHg 89%
    06:00 +26°C° 0.1 mm 1 mps 729 mmHg 87%
    07:00 +26°C° 0.1 mm 1 mps 730 mmHg 85%
    08:00 +28°C° 0.2 mm 1 mps 730 mmHg 78%
    09:00 +30°C° 0.2 mm 1 mps 730 mmHg 71%
    10:00 +31°C° 0.2 mm 2 mps 731 mmHg 65%
    11:00 +32°C° 0.5 mm 2 mps 730 mmHg 64%
    12:00 +32°C° 0.5 mm 2 mps 729 mmHg 64%
    13:00 +34°C° 0.5 mm 2 mps 729 mmHg 64%
    14:00 +32°C° 0.9 mm 2 mps 728 mmHg 69%
    15:00 +31°C° 0.9 mm 2 mps 728 mmHg 74%
    16:00 +30°C° 0.9 mm 1 mps 727 mmHg 80%
    17:00 +29°C° 0.5 mm 1 mps 727 mmHg 84%
    18:00 +28°C° 0.5 mm 1 mps 728 mmHg 88%
    19:00 +27°C° 0.5 mm 1 mps 728 mmHg 92%
    20:00 +27°C° 0.5 mm 1 mps 729 mmHg 92%
    21:00 +27°C° 0.5 mm 1 mps 729 mmHg 93%
    22:00 +26°C° 0.5 mm 1 mps 730 mmHg 93%
    23:00 +26°C° 0.2 mm 1 mps 729 mmHg 93%

    Day after tomorrow, 19 November, Monday

    Time Temperature Precipitation Wind Pressure Humidity
    00:00 +26°C° 0.2 mm 1 mps 729 mmHg 93%
    01:00 +25°C° 0.2 mm 1 mps 729 mmHg 93%
    02:00 +25°C° 0 mm 1 mps 729 mmHg 93%
    03:00 +25°C° 0 mm 1 mps 728 mmHg 92%
    04:00 +24°C° 0 mm 1 mps 728 mmHg 92%
    05:00 +25°C° 0 mm 1 mps 729 mmHg 89%
    06:00 +26°C° 0 mm 1 mps 729 mmHg 86%
    07:00 +26°C° 0 mm 1 mps 730 mmHg 83%
    08:00 +28°C° 0 mm 2 mps 730 mmHg 74%
    09:00 +30°C° 0 mm 2 mps 730 mmHg 66%
    10:00 +33°C° 0 mm 3 mps 731 mmHg 58%
    11:00 +34°C° 0.1 mm 3 mps 730 mmHg 58%
    12:00 +34°C° 0.1 mm 3 mps 729 mmHg 58%
    13:00 +35°C° 0.1 mm 3 mps 728 mmHg 58%
    14:00 +34°C° 0.1 mm 2 mps 727 mmHg 62%
    15:00 +32°C° 0.1 mm 2 mps 726 mmHg 66%
    16:00 +32°C° 0.1 mm 2 mps 726 mmHg 69%
    17:00 +30°C° 0.1 mm 2 mps 726 mmHg 75%
    18:00 +29°C° 0.1 mm 1 mps 727 mmHg 81%
    19:00 +27°C° 0.1 mm 1 mps 728 mmHg 87%
    20:00 +27°C° 0.3 mm 1 mps 728 mmHg 88%
    21:00 +27°C° 0.3 mm 1 mps 729 mmHg 88%
    22:00 +26°C° 0.3 mm 1 mps 729 mmHg 89%
    23:00 +26°C° 0 mm 1 mps 729 mmHg 89%

    20 November, Tuesday

    Time Temperature Precipitation Wind Pressure Humidity
    00:00 +26°C° 0 mm 1 mps 729 mmHg 89%
    01:00 +25°C° 0 mm 1 mps 728 mmHg 89%
    02:00 +25°C° 0 mm 1 mps 728 mmHg 87%
    03:00 +25°C° 0 mm 1 mps 728 mmHg 86%
    04:00 +25°C° 0 mm 1 mps 728 mmHg 85%
    05:00 +26°C° 0 mm 1 mps 729 mmHg 83%
    06:00 +26°C° 0 mm 1 mps 729 mmHg 80%
    07:00 +27°C° 0 mm 1 mps 730 mmHg 77%
    08:00 +29°C° 0.1 mm 2 mps 730 mmHg 72%
    09:00 +30°C° 0.1 mm 3 mps 730 mmHg 67%
    10:00 +33°C° 0.1 mm 3 mps 731 mmHg 62%
    11:00 +33°C° 0.1 mm 3 mps 730 mmHg 63%
    12:00 +33°C° 0.1 mm 3 mps 729 mmHg 63%
    13:00 +33°C° 0.1 mm 3 mps 728 mmHg 63%
    14:00 +33°C° 0.2 mm 3 mps 728 mmHg 66%
    15:00 +31°C° 0.2 mm 2 mps 727 mmHg 70%
    16:00 +31°C° 0.2 mm 2 mps 726 mmHg 73%
    17:00 +30°C° 0.2 mm 2 mps 727 mmHg 78%
    18:00 +28°C° 0.2 mm 1 mps 728 mmHg 83%
    19:00 +27°C° 0.2 mm 1 mps 728 mmHg 88%
    20:00 +27°C° 0.2 mm 1 mps 729 mmHg 89%
    21:00 +27°C° 0.2 mm 1 mps 729 mmHg 89%
    22:00 +26°C° 0.2 mm 1 mps 730 mmHg 89%
    23:00 +26°C° 0.1 mm 1 mps 729 mmHg 89%

    21 November, Wednesday

    Time Temperature Precipitation Wind Pressure Humidity
    00:00 +26°C° 0.1 mm 1 mps 729 mmHg 89%
    01:00 +26°C° 0.1 mm 1 mps 729 mmHg 89%
    02:00 +25°C° 0.1 mm 1 mps 729 mmHg 88%
    03:00 +25°C° 0.1 mm 1 mps 728 mmHg 87%
    04:00 +25°C° 0.1 mm 1 mps 728 mmHg 86%
    05:00 +26°C° 0.2 mm 1 mps 729 mmHg 84%
    06:00 +26°C° 0.2 mm 1 mps 730 mmHg 81%
    07:00 +27°C° 0.2 mm 1 mps 731 mmHg 79%
    08:00 +28°C° 0.2 mm 1 mps 731 mmHg 74%
    09:00 +29°C° 0.2 mm 2 mps 731 mmHg 69%
    10:00 +31°C° 0.2 mm 2 mps 731 mmHg 64%
    11:00 +31°C° 0.1 mm 2 mps 730 mmHg 63%
    12:00 +32°C° 0.1 mm 2 mps 729 mmHg 62%
    13:00 +34°C° 0.1 mm 2 mps 729 mmHg 61%
    14:00 +32°C° 0.1 mm 2 mps 728 mmHg 64%
    15:00 +32°C° 0.1 mm 2 mps 728 mmHg 67%
    16:00 +31°C° 0.1 mm 1 mps 727 mmHg 69%
    17:00 +30°C° 0.4 mm 1 mps 728 mmHg 75%
    18:00 +29°C° 0.4 mm 1 mps 728 mmHg 81%
    19:00 +27°C° 0.4 mm 1 mps 729 mmHg 86%
    20:00 +27°C° 0.6 mm 1 mps 729 mmHg 87%
    21:00 +27°C° 0.6 mm 1 mps 729 mmHg 87%
    22:00 +26°C° 0.6 mm 1 mps 730 mmHg 88%
    23:00 +26°C° 0.3 mm 1 mps 729 mmHg 88%

    22 November, Thursday

    Time Temperature Precipitation Wind Pressure Humidity
    00:00 +26°C° 0.3 mm 1 mps 729 mmHg 88%
    01:00 +26°C° 0.3 mm 1 mps 728 mmHg 88%
    02:00 +25°C° 0.1 mm 1 mps 728 mmHg 87%
    03:00 +25°C° 0.1 mm 1 mps 728 mmHg 87%
    04:00 +25°C° 0.1 mm 1 mps 728 mmHg 86%
    05:00 +26°C° 0 mm 1 mps 729 mmHg 84%
    06:00 +26°C° 0 mm 1 mps 730 mmHg 81%
    07:00 +27°C° 0 mm 1 mps 730 mmHg 78%
    08:00 +28°C° 0.1 mm 1 mps 730 mmHg 73%
    09:00 +30°C° 0.1 mm 2 mps 730 mmHg 67%
    10:00 +31°C° 0.1 mm 2 mps 730 mmHg 61%
    11:00 +32°C° 0.1 mm 2 mps 729 mmHg 62%
    12:00 +32°C° 0.1 mm 2 mps 728 mmHg 62%
    13:00 +32°C° 0.1 mm 2 mps 728 mmHg 62%
    14:00 +32°C° 0.1 mm 2 mps 727 mmHg 66%
    15:00 +31°C° 0.1 mm 2 mps 727 mmHg 69%
    16:00 +31°C° 0.1 mm 2 mps 726 mmHg 73%
    17:00 +29°C° 0.8 mm 1 mps 727 mmHg 78%
    18:00 +28°C° 0.8 mm 1 mps 727 mmHg 84%
    19:00 +27°C° 0.8 mm 1 mps 728 mmHg 89%
    20:00 +27°C° 0.8 mm 1 mps 728 mmHg 90%
    21:00 +26°C° 0.8 mm 1 mps 729 mmHg 91%
    22:00 +26°C° 0.8 mm 1 mps 729 mmHg 91%
    23:00 +26°C° 0.3 mm 1 mps 729 mmHg 91%
    Show more